Vorticity
nan nan nan nan nan nan nan nan nan nan nan nan nan nan nan nan nan nan nan nan nan nan nan nan nan nan nan nan nan nan nan nan nan nan nan nan nan nan nan nan nan nan nan nan nan nan nan nan nan nan nan nan nan nan nan nan nan nan nan nan nan nan nan nan nan nan nan nan nan
nan 3 3 5 5 5 6 7 9 11 11 10 10 11 10 9 10 9 9 7 6 8 9 12 14 15 17 15 9 6 5 7 10 9 10 9 8 8 7 8 9 8 7 6 4 4 7 8 5 6 7 10 10 9 8 9 10 11 11 7 6 9 10 10 10 9 8 6 nan
nan 4 4 5 4 3 5 6 9 12 11 8 8 8 7 8 10 11 11 9 8 7 7 11 16 17 16 11 6 6 6 10 11 9 8 9 10 8 7 8 9 7 5 5 5 5 8 7 5 6 7 9 9 9 9 9 9 10 12 8 4 7 8 11 11 10 8 9 nan
nan 5 6 8 7 2 -0 5 9 6 4 9 12 8 5 7 9 11 12 12 10 7 7 10 14 15 14 11 8 6 7 11 12 8 7 9 11 9 8 7 7 6 5 6 6 6 7 5 4 7 9 9 9 8 8 10 10 8 10 9 7 8 8 9 10 9 8 10 nan
nan 5 6 12 10 1 -0 6 8 2 -0 7 15 13 9 8 10 10 10 10 11 11 13 10 9 12 14 14 11 7 7 9 8 7 9 10 10 9 8 7 6 5 6 7 7 7 7 3 2 7 9 9 9 9 10 9 8 7 7 8 9 8 8 8 9 9 8 9 nan
nan 7 6 11 11 2 2 9 9 3 1 7 14 15 10 8 10 9 8 10 14 15 14 9 8 11 14 14 10 8 8 8 8 8 10 10 9 10 9 7 5 4 6 8 8 7 6 2 2 6 9 9 11 11 11 9 7 7 6 7 8 8 9 8 8 9 9 8 nan
nan 8 7 10 9 3 4 7 6 4 2 8 13 11 10 10 11 9 6 8 12 13 11 10 10 11 13 11 8 8 8 9 10 10 8 8 10 10 8 7 6 5 6 7 7 6 5 3 2 6 8 9 12 14 12 7 6 7 7 5 6 8 10 8 7 9 11 10 nan
nan 9 8 10 9 6 5 3 2 3 2 6 12 11 10 11 12 10 6 7 10 10 8 12 14 11 9 9 8 8 9 9 9 9 8 9 11 9 7 7 7 7 6 6 6 6 4 3 4 7 8 8 10 15 15 10 6 5 6 5 4 7 8 8 8 9 11 11 nan
nan 11 10 10 9 8 7 3 2 3 3 6 9 10 9 10 12 10 6 6 10 10 8 12 16 12 9 8 7 7 8 9 9 8 8 10 11 8 6 7 8 7 6 7 8 7 2 1 4 7 7 8 9 12 15 13 7 5 5 6 6 6 6 8 8 8 9 10 nan
nan 11 10 10 11 9 8 6 4 4 4 5 7 7 7 8 10 9 5 6 10 10 9 12 14 12 11 8 6 6 7 9 10 10 9 10 10 8 5 7 9 6 6 7 8 8 2 1 5 6 6 8 10 11 12 12 9 6 2 5 9 8 6 6 8 8 7 8 nan
nan 8 7 11 13 9 8 6 4 5 4 5 7 7 6 6 8 7 6 7 10 12 9 10 13 11 9 8 8 8 7 8 11 12 11 9 9 8 6 7 8 7 6 5 6 6 4 5 8 8 5 6 10 11 12 11 9 7 2 3 8 9 8 6 6 7 8 9 nan
nan 8 8 11 12 9 7 5 4 6 6 6 7 6 6 8 10 9 8 7 8 10 11 12 12 9 6 7 10 9 10 10 10 10 11 10 9 8 7 7 8 7 6 4 3 4 6 7 9 9 8 4 6 11 14 12 9 8 6 4 6 7 8 7 5 4 7 9 nan
nan 9 9 11 12 9 6 2 3 7 8 7 5 6 8 12 14 12 10 7 5 7 11 14 12 9 7 8 10 10 10 11 10 8 10 10 9 9 7 7 7 6 5 4 3 4 5 8 9 9 8 5 4 9 12 11 9 8 8 7 6 6 7 7 5 4 5 6 nan
nan 9 9 11 10 7 6 2 3 8 11 8 5 6 9 14 15 13 11 9 7 7 10 12 11 10 11 11 10 10 9 10 11 9 9 8 9 9 7 7 7 5 3 4 7 6 5 6 9 9 9 7 5 7 9 9 8 9 9 8 7 7 7 7 7 6 6 6 nan
nan 9 9 10 8 4 6 4 3 9 12 10 6 7 9 13 14 12 13 12 10 8 9 10 11 13 14 13 10 10 9 9 10 9 9 8 8 8 7 7 7 4 3 4 7 8 8 7 8 8 9 9 8 7 7 7 7 8 8 9 8 8 7 8 7 7 7 7 nan
nan 9 8 8 6 3 4 2 4 11 13 11 9 8 8 11 13 13 14 12 10 10 12 11 10 12 14 13 11 10 9 9 10 9 8 8 8 7 6 6 5 5 5 4 5 7 8 8 9 10 10 10 9 8 8 7 7 7 7 8 8 8 8 8 8 7 7 7 nan
nan 8 7 7 6 4 3 1 3 10 14 14 11 8 8 9 12 13 14 11 10 13 15 10 6 8 10 10 11 12 10 10 9 9 8 9 9 7 5 4 5 5 6 6 7 7 6 6 7 10 11 11 10 9 9 8 7 8 8 8 8 8 8 8 8 8 9 8 nan
nan 8 8 8 8 6 5 3 4 9 13 13 11 9 8 10 12 12 13 10 10 13 12 7 4 6 8 7 7 10 11 11 10 9 9 10 8 6 4 4 4 6 7 9 9 8 7 6 6 7 9 10 10 10 10 9 8 8 8 8 8 8 8 8 8 8 9 9 nan
nan 9 9 9 9 9 9 7 6 8 11 11 10 10 11 12 11 10 11 10 9 11 10 7 6 7 9 7 4 6 9 12 12 10 9 8 7 5 4 4 5 7 8 9 9 9 8 8 7 7 7 8 8 8 9 8 8 9 8 8 8 8 8 8 7 7 8 9 nan
nan 9 10 10 11 11 11 9 7 8 9 12 13 12 12 12 11 10 10 8 8 10 12 9 6 8 10 8 5 4 4 11 16 11 9 6 6 5 5 6 7 9 10 10 9 9 8 7 8 7 7 6 6 7 7 8 8 8 7 9 10 9 8 8 8 7 7 8 nan
nan 11 11 12 12 12 11 10 9 9 9 12 13 12 12 12 12 11 10 7 7 11 12 10 7 8 8 9 7 4 1 8 15 13 9 7 7 6 6 8 9 9 10 10 9 9 8 8 8 7 7 7 6 6 6 7 8 8 7 6 8 9 8 7 8 8 8 8 nan
nan 12 13 13 13 12 12 10 9 10 11 12 13 12 11 11 11 10 9 7 8 10 10 9 9 8 8 9 8 5 2 7 13 13 9 8 8 7 7 9 10 10 10 10 9 9 8 8 8 7 6 7 7 6 5 6 7 9 8 6 6 7 7 7 8 8 8 8 nan
nan 12 14 16 15 14 12 11 10 11 12 13 13 12 11 10 10 9 7 6 7 8 6 7 10 11 10 10 9 7 4 7 10 11 9 8 8 8 7 9 12 10 9 11 12 12 11 11 11 9 7 7 8 7 7 7 7 8 9 8 8 8 8 8 8 8 8 8 nan
nan 12 12 18 20 17 14 11 11 12 13 14 13 11 10 9 9 8 7 5 6 6 3 4 10 14 16 14 11 9 7 7 8 8 7 6 7 9 7 9 11 11 7 9 15 15 14 15 15 13 10 9 9 10 10 9 8 8 8 9 9 9 9 9 8 8 8 7 nan
nan 13 12 17 20 17 15 13 13 12 12 12 12 10 9 9 8 8 8 6 6 6 6 5 8 12 16 17 13 10 9 8 7 6 7 6 7 7 7 7 9 9 8 10 14 15 13 13 15 14 13 11 11 11 12 12 10 9 8 8 9 9 9 10 10 9 9 9 nan
nan 14 13 14 16 15 13 12 11 9 8 9 10 9 8 8 8 9 9 8 8 9 10 9 8 9 14 15 12 8 5 7 8 8 7 8 8 6 4 4 6 7 11 13 14 13 11 9 10 11 11 10 10 11 12 14 13 11 9 8 8 8 8 9 9 9 9 10 nan
nan 12 11 10 12 11 10 9 9 7 6 9 11 10 8 7 8 11 10 10 10 11 10 9 9 9 11 14 12 6 1 5 10 10 8 9 10 7 3 1 2 5 12 17 16 13 10 7 6 6 7 9 9 9 9 11 13 13 12 11 10 9 8 8 9 10 9 9 nan
nan 9 8 7 8 8 7 7 7 7 8 11 11 10 10 10 9 10 10 11 10 9 8 8 7 6 8 15 15 9 3 3 7 10 11 11 10 8 3 0 1 4 11 19 17 13 9 7 5 4 4 6 8 9 9 10 12 13 14 14 14 13 12 11 12 12 11 10 nan
nan 7 6 5 6 6 7 7 7 8 9 10 10 11 11 12 11 11 11 11 9 5 4 5 6 7 10 14 15 12 8 5 5 9 13 13 10 8 5 3 2 4 11 17 15 11 9 8 7 5 3 3 4 7 8 9 9 10 11 12 13 13 12 12 10 10 11 12 nan
nan 8 8 7 7 7 7 8 8 8 8 10 12 12 11 12 12 11 11 10 7 4 2 5 8 11 12 11 10 10 10 9 9 11 14 12 9 6 5 4 2 5 12 16 13 10 9 8 8 6 5 3 1 3 5 6 6 7 7 8 9 8 9 9 9 8 8 9 nan
nan 10 10 10 9 9 9 9 10 10 8 11 14 13 12 11 11 9 9 9 8 6 7 8 10 11 9 8 8 9 10 10 11 12 13 11 8 7 6 5 2 4 12 16 11 8 8 8 7 7 7 4 2 3 4 4 5 5 5 4 4 5 6 9 11 11 9 7 nan
nan 11 11 12 11 11 11 11 12 12 12 12 13 13 12 11 10 9 9 10 11 10 10 10 10 10 9 7 8 9 10 9 10 10 11 11 9 6 5 6 6 7 14 16 11 8 7 7 7 7 7 5 4 5 4 4 6 7 7 6 6 6 5 5 8 10 10 9 nan
nan 11 11 12 12 12 13 13 13 13 14 13 13 12 12 11 10 10 9 10 13 13 11 10 10 10 10 9 9 10 9 10 10 10 9 8 7 6 4 5 10 15 21 18 10 8 7 7 7 8 9 6 4 7 6 5 6 8 9 10 11 11 10 6 6 8 10 10 nan
nan 11 11 12 12 13 13 13 13 14 13 12 12 12 11 11 11 10 9 10 12 14 13 11 10 10 10 10 10 10 8 10 13 12 9 7 5 5 3 0 8 20 32 22 9 8 8 7 8 9 9 6 4 8 9 7 5 6 7 8 9 10 11 12 10 10 11 11 nan
nan 10 11 11 12 13 14 14 13 13 12 11 11 11 11 11 11 10 9 10 11 12 12 12 10 10 10 11 11 11 9 10 12 12 9 7 6 6 5 1 6 15 31 22 8 8 8 8 9 9 7 3 4 8 11 11 9 8 7 7 8 9 9 10 12 13 14 14 nan
nan 11 11 11 12 13 14 13 12 11 11 11 11 11 11 11 10 10 11 11 11 11 11 11 10 10 10 10 10 11 11 11 10 9 9 8 7 8 7 7 7 10 20 17 10 9 8 9 10 9 5 0 3 7 10 12 12 13 12 10 10 11 11 12 13 13 13 13 nan
nan 11 11 12 13 13 13 13 12 11 10 11 11 11 11 10 10 10 11 12 12 12 11 11 11 11 10 9 9 10 11 10 9 9 8 8 9 9 9 11 9 7 12 16 12 10 9 9 10 7 2 -2 2 6 8 9 10 12 13 13 13 13 13 15 16 16 14 12 nan
nan 12 12 12 12 12 12 12 12 12 11 11 10 10 10 10 10 11 11 12 13 13 11 11 11 11 11 9 10 12 11 9 9 8 9 8 9 10 11 12 9 6 9 17 14 11 10 11 10 6 -1 -1 3 6 7 8 8 8 10 12 13 13 12 13 15 17 16 14 nan
nan 12 12 12 12 12 12 11 11 11 12 11 10 10 9 9 10 13 13 13 13 12 11 11 11 10 11 10 10 13 13 10 8 8 8 9 10 11 13 12 8 6 10 18 16 12 11 12 10 6 -2 -2 4 5 7 8 8 8 8 9 11 12 13 12 12 13 15 17 nan
nan 13 12 12 12 12 12 11 11 10 11 11 11 10 10 9 10 12 13 13 13 12 11 12 12 11 11 12 12 13 12 10 8 8 8 8 8 10 15 14 9 8 12 18 16 13 11 12 11 6 -3 -2 4 5 7 8 9 9 8 8 9 11 13 12 12 12 13 16 nan
nan nan nan nan nan nan nan nan nan nan nan nan nan nan nan nan nan nan nan nan nan nan nan nan nan nan nan nan nan nan nan nan nan nan nan nan nan nan nan nan nan nan nan nan nan nan nan nan nan nan nan nan nan nan nan nan nan nan nan nan nan nan nan nan nan nan nan nan nan
CAPE
121 nan nan nan nan nan nan nan nan nan nan nan nan nan nan nan nan nan nan nan nan nan nan nan nan nan nan nan nan nan nan nan nan nan nan nan nan nan nan nan nan nan nan nan nan nan nan nan nan nan nan nan nan nan nan nan nan nan nan nan nan nan nan nan nan nan nan nan nan
139 nan nan nan nan nan nan nan nan nan nan nan nan nan nan nan nan nan nan nan nan nan nan nan nan nan nan nan nan nan nan nan nan nan nan nan nan nan nan nan nan nan nan nan nan nan nan nan nan nan nan nan nan nan nan nan nan nan nan nan nan nan nan nan nan nan nan nan nan
159 nan nan nan nan nan nan nan nan nan nan nan nan nan nan nan nan nan nan nan nan nan nan nan nan nan nan nan nan nan nan nan nan nan nan nan nan nan nan nan nan nan nan nan nan nan nan nan nan nan nan nan nan nan nan nan nan nan nan nan nan nan nan nan nan nan nan nan nan
181 2 2 nan nan nan nan nan nan nan nan nan nan nan nan nan nan nan nan nan nan nan nan nan nan nan nan nan nan nan nan nan nan nan nan nan nan nan nan nan nan nan nan nan nan nan nan nan nan nan nan nan nan nan nan nan nan nan nan nan nan nan nan nan nan nan nan nan nan
203 nan nan nan nan nan nan nan nan nan nan nan nan nan nan nan nan nan nan nan nan nan nan nan nan nan nan nan nan nan nan nan nan nan nan nan nan nan nan nan nan nan nan nan nan nan nan nan nan nan nan nan nan nan nan nan nan nan nan nan nan nan nan nan nan nan nan nan nan
179 9 9 nan nan nan nan nan nan nan nan nan nan nan nan nan nan nan nan nan nan nan nan nan nan nan nan nan nan nan nan nan nan nan nan nan nan nan nan nan nan nan nan nan nan nan nan nan nan nan nan nan nan nan nan nan nan nan nan nan nan nan nan nan nan nan nan nan nan
185 25 25 nan nan nan nan nan nan nan nan nan nan nan nan nan nan nan nan nan nan nan nan nan nan nan nan nan nan nan nan nan nan nan nan nan nan nan nan nan nan nan nan nan nan nan nan nan nan nan nan nan nan nan nan nan nan nan nan nan nan nan nan nan nan nan nan nan nan
206 35 35 nan nan nan nan nan nan nan nan nan nan nan nan nan nan nan nan nan nan nan nan nan nan nan nan nan nan nan nan nan nan nan nan nan nan nan nan nan nan nan nan nan nan nan nan nan nan nan nan nan nan nan nan nan nan nan nan nan nan nan nan nan nan nan nan nan nan
230 73 73 0 nan nan nan nan nan nan nan nan nan nan nan nan nan nan nan nan nan nan nan nan nan nan nan nan nan nan nan nan nan nan nan nan nan nan nan nan nan nan nan nan nan nan nan nan nan nan nan nan nan nan nan nan nan nan nan nan nan nan nan nan nan nan nan nan nan
236 110 110 19 0 0 nan nan nan nan nan nan nan nan nan nan nan nan nan nan nan nan nan nan nan nan nan nan nan nan nan nan nan nan nan nan nan nan nan nan nan nan nan nan nan nan nan nan nan nan nan nan nan nan nan nan nan nan nan nan nan nan nan nan nan nan nan nan nan
225 114 114 35 19 19 nan nan nan nan nan nan nan nan nan nan nan nan nan nan nan nan nan nan nan nan nan nan nan nan nan nan nan nan nan nan nan nan nan nan nan nan nan nan nan nan nan nan nan nan nan nan nan nan nan nan nan nan nan nan nan nan nan nan nan nan nan nan nan
217 125 125 63 28 28 0 nan nan nan nan nan nan nan nan nan nan nan nan nan nan nan nan nan nan nan nan nan nan nan nan nan nan nan nan nan nan nan nan nan nan nan nan nan nan nan nan nan nan nan nan nan nan nan nan nan nan nan nan nan nan nan nan nan nan nan nan nan nan
212 157 157 85 53 53 49 nan nan nan nan nan nan nan nan nan nan nan nan nan nan nan nan nan nan nan nan nan nan nan nan nan nan nan nan nan nan nan nan nan nan nan nan nan nan nan nan nan nan nan nan nan nan nan nan nan nan nan nan nan nan nan nan nan nan nan nan nan nan
260 163 163 110 85 85 60 1 nan nan nan nan nan nan nan nan nan nan nan nan nan nan nan nan nan nan nan nan nan nan nan nan nan nan nan nan nan nan nan nan nan nan nan nan nan nan nan nan nan nan nan nan nan nan nan nan nan nan nan nan nan nan nan nan nan nan nan nan nan
307 167 167 99 110 110 72 14 nan nan nan nan nan nan nan nan nan nan nan nan nan nan nan nan nan nan nan nan nan nan nan nan nan nan nan nan nan nan nan nan nan nan nan nan nan nan nan nan nan nan nan nan nan nan nan nan nan nan nan nan nan nan nan nan nan nan nan nan nan
363 203 203 113 87 87 84 47 nan nan nan nan nan nan nan nan nan nan nan nan nan nan nan nan nan nan nan nan nan nan nan nan nan nan nan nan nan nan nan nan nan nan nan nan nan nan nan nan nan nan nan nan nan nan nan nan nan nan nan nan nan nan nan nan nan nan nan nan nan
422 226 226 114 87 87 97 57 5 5 nan nan nan nan nan nan nan nan nan nan nan nan nan nan nan nan nan nan nan nan nan nan nan nan nan nan nan nan nan nan nan nan nan nan nan nan nan nan nan nan nan nan nan nan nan nan nan nan nan nan nan nan nan nan nan nan nan nan nan
633 415 415 234 142 142 81 45 nan nan nan nan nan nan nan nan nan nan nan nan nan nan nan nan nan nan nan nan nan nan nan nan nan nan nan nan nan nan nan nan nan nan nan nan nan nan nan nan nan nan nan nan nan nan nan nan nan nan nan nan nan nan nan nan nan nan nan nan nan
760 531 531 328 181 181 58 nan nan nan nan nan nan nan nan nan nan nan nan nan nan nan nan nan nan nan nan nan nan nan nan nan nan nan nan nan nan nan nan nan nan nan nan nan nan nan nan nan nan nan nan nan nan nan nan nan nan nan nan nan nan nan nan nan nan nan nan nan nan
805 629 629 414 208 208 50 nan nan nan nan nan nan nan nan nan nan nan nan nan nan nan nan nan nan nan nan nan nan nan nan nan nan nan nan nan nan nan nan nan nan nan nan nan nan nan nan nan nan nan nan nan nan nan nan nan nan nan nan nan nan nan nan nan nan nan nan nan nan
822 705 705 480 241 241 34 nan nan nan nan nan nan nan nan nan nan nan nan nan nan nan nan nan nan nan nan nan nan nan nan nan nan nan nan nan nan nan nan nan nan nan nan nan nan nan nan nan nan nan nan nan nan nan nan nan nan nan nan nan nan nan nan nan nan nan nan 0 0
782 724 724 496 252 252 19 nan nan nan nan nan nan nan nan nan nan nan nan nan nan nan nan nan nan nan nan nan nan nan nan nan nan nan nan nan nan nan nan nan nan nan nan nan nan nan nan nan nan nan nan nan nan nan nan nan nan nan nan nan 0 nan nan nan 0 0 1 1 1
712 654 654 512 243 243 nan nan nan nan nan nan nan nan nan nan nan nan nan nan nan nan nan nan nan nan nan nan nan nan nan nan nan nan nan nan nan nan nan nan nan nan nan nan nan nan nan nan nan nan nan nan nan nan nan nan nan nan nan 0 0 0 0 1 3 3 3 2 3
585 530 530 347 177 177 8 nan nan nan nan nan nan nan nan nan nan nan nan nan nan nan nan nan nan nan nan nan nan nan nan nan nan nan nan nan nan nan nan nan nan nan nan nan nan nan nan nan nan nan nan nan nan nan nan 13 3 0 0 1 2 1 1 2 2 2 1 2 9
440 316 316 105 8 8 nan nan nan nan nan nan nan nan nan nan nan nan nan nan nan nan nan nan nan nan nan nan nan nan nan nan nan nan nan nan nan nan nan nan nan nan nan nan nan nan nan nan nan nan nan nan nan 13 13 16 19 8 8 8 5 1 1 2 2 2 2 2 5
169 101 101 nan nan nan nan nan nan nan nan nan nan nan nan nan nan nan nan nan nan nan nan nan nan nan nan nan nan nan nan nan nan nan nan nan nan nan nan nan nan nan nan nan nan nan nan nan nan nan nan nan 0 13 13 23 17 17 17 13 11 7 7 5 3 3 3 2 0
0 nan nan nan nan nan nan nan nan nan nan nan nan nan nan nan nan nan nan nan nan nan nan nan nan nan nan nan nan nan nan nan nan nan nan nan nan nan nan nan nan nan nan nan nan nan nan nan nan nan nan nan nan 2 2 8 17 13 13 12 19 20 20 20 12 12 7 3 1
nan nan nan nan nan nan nan nan nan nan nan nan nan nan nan nan nan nan nan nan nan nan nan nan nan nan nan nan nan nan nan nan nan nan nan nan nan nan nan nan nan nan nan nan nan nan nan nan nan nan nan nan nan 0 0 nan 3 8 8 11 21 24 24 27 23 23 22 11 1
nan nan nan nan nan nan nan nan nan nan nan nan nan nan nan nan nan nan nan nan nan nan nan nan nan nan nan nan nan nan nan nan nan nan nan nan nan nan nan nan nan nan nan nan nan nan nan nan nan nan nan nan nan nan nan nan nan nan nan 5 17 22 22 29 30 30 29 24 8
nan nan nan nan nan nan nan nan nan nan nan nan nan nan nan nan nan nan nan nan nan nan nan nan nan nan nan nan nan nan nan nan nan nan nan nan nan nan nan nan nan nan nan nan nan nan nan nan nan nan nan nan nan nan nan nan nan nan nan nan 7 16 16 17 22 22 26 24 18
nan nan nan nan nan nan nan nan nan nan nan nan nan nan nan nan nan nan nan nan nan nan nan nan nan nan nan nan nan nan nan nan nan nan nan nan nan nan nan nan nan nan nan nan nan nan nan nan nan nan nan nan nan nan nan nan nan nan nan nan 0 9 9 13 10 10 19 18 16
nan nan nan nan nan nan nan nan nan nan nan nan nan nan nan nan nan nan nan nan nan nan nan nan nan nan nan nan nan nan nan nan nan nan nan nan nan nan nan nan nan nan nan nan nan nan nan nan nan nan nan nan nan nan nan nan nan nan nan nan nan 1 1 7 11 11 16 13 11
nan nan nan nan nan nan nan nan nan nan nan nan nan nan nan nan nan nan nan nan nan nan nan nan nan nan nan nan nan nan nan nan nan nan nan nan nan nan nan nan nan nan nan nan nan nan nan nan nan nan nan nan nan nan nan nan nan nan nan nan nan nan nan 1 6 6 9 9 5
nan nan nan nan nan nan nan nan nan nan nan nan nan nan nan nan nan nan nan nan nan nan nan nan nan nan nan nan nan nan nan nan nan nan nan nan nan nan nan nan nan nan nan nan nan nan nan nan nan nan nan nan nan nan nan nan nan nan nan nan nan nan nan nan 0 0 2 3 3
nan nan nan nan nan nan nan nan nan nan nan nan nan nan nan nan nan nan nan nan nan nan nan nan nan nan nan nan nan nan nan nan nan nan nan nan nan nan nan nan nan nan nan nan nan nan nan nan nan nan nan nan nan nan nan nan nan nan nan nan nan nan nan nan nan nan 2 7 11
nan nan nan nan nan nan nan nan nan nan nan nan nan nan nan nan nan nan nan nan nan nan nan nan nan nan nan nan nan nan nan nan nan nan nan nan nan nan nan nan nan nan nan nan nan nan nan nan nan nan nan nan nan nan nan nan nan nan nan nan nan nan nan nan 0 0 10 22 23
nan nan nan nan nan nan nan nan nan nan nan nan nan nan nan nan nan nan nan nan nan nan nan nan nan nan nan nan nan nan nan nan nan nan nan nan nan nan nan nan nan nan nan nan nan nan nan nan nan nan nan nan nan nan nan nan nan nan nan nan nan nan nan 2 12 12 26 36 37
nan nan nan nan nan nan nan nan nan nan nan nan nan nan nan nan nan nan nan nan nan nan nan nan nan nan nan nan nan nan nan nan nan nan nan nan nan nan nan nan nan nan nan nan nan nan nan nan nan nan nan nan nan nan nan nan nan nan nan nan nan 1 1 7 12 12 22 16 nan
nan nan nan nan nan nan nan nan nan nan nan nan nan nan nan nan nan nan nan nan nan nan nan nan nan nan nan nan nan nan nan nan nan nan nan nan nan nan nan nan nan nan nan nan nan nan nan nan nan nan nan nan nan nan nan nan nan nan nan nan nan 0 0 1 3 3 8 7 nan
nan nan nan nan nan nan nan nan nan nan nan nan nan nan nan nan nan nan nan nan nan nan nan nan nan nan nan nan nan nan nan nan nan nan nan nan nan nan nan nan nan nan nan nan nan nan nan nan nan nan nan nan nan nan nan nan nan nan nan nan nan nan nan nan nan nan 1 8 nan
nan nan nan nan nan nan nan nan nan nan nan nan nan nan nan nan nan nan nan nan nan nan nan nan nan nan nan nan nan nan nan nan nan nan nan nan nan nan nan nan nan nan nan nan nan nan nan nan nan nan nan nan nan nan nan nan nan nan nan nan nan nan nan nan 0 0 3 7 4